Wind_Speed
51 52 53 55 56 58 59 60 61 61 62 63 63 64 65 65 64 63 63 62 61 59 58 56 55 54 52 50 49 48 46 45 42 39 40 42 43 43 43 43 43 44 43
52 53 55 56 58 59 59 60 60 61 62 63 64 64 64 63 62 62 61 59 57 56 55 53 51 50 49 47 46 45 44 42 40 37 37 37 37 37 37 37 38 38 38
55 55 56 57 58 58 59 59 60 61 62 63 63 62 61 60 60 59 57 55 53 52 51 50 48 47 46 45 44 42 41 39 37 35 33 34 34 34 34 33 33 34 33
56 56 57 57 57 58 58 59 60 61 61 61 60 58 58 57 56 55 53 51 50 49 47 46 45 44 43 41 40 38 37 35 33 31 30 29 29 31 31 31 29 30 30
56 56 56 57 57 57 57 58 59 59 58 57 55 55 55 54 53 52 50 48 46 45 43 42 41 40 39 36 34 33 33 32 30 28 27 27 27 28 28 28 27 27 28
55 55 56 56 56 56 56 56 56 55 54 53 52 52 51 50 50 49 47 44 42 39 38 37 37 36 33 31 30 30 29 29 28 26 25 25 25 27 27 26 25 25 26
55 55 56 56 55 55 55 54 53 52 51 49 49 48 47 46 46 44 42 40 37 35 34 34 33 31 30 28 28 27 26 26 26 25 24 23 23 25 25 24 24 24 24
55 55 55 55 54 53 52 51 50 49 48 47 46 44 44 43 41 39 37 34 32 31 31 31 30 28 27 27 25 24 24 24 24 23 22 21 22 23 23 23 23 23 24
53 54 53 53 52 50 49 48 47 46 45 43 42 41 39 37 36 35 33 31 30 29 29 28 27 25 25 25 23 23 22 22 23 23 22 21 21 22 22 23 22 21 22
51 51 51 50 49 48 47 46 45 44 43 42 40 38 36 33 32 32 31 28 27 26 26 25 24 24 24 23 22 22 22 21 22 23 21 20 20 20 20 20 21 20 20
49 49 49 48 47 47 46 45 43 42 41 39 37 35 33 32 30 29 27 25 24 23 23 23 22 22 22 22 22 21 20 20 20 21 20 19 19 19 19 19 20 20 19
48 48 47 46 46 45 44 42 41 40 38 36 33 32 30 29 27 25 24 23 23 22 21 20 20 20 20 20 20 20 19 19 18 19 19 18 19 18 18 18 17 17 18
46 45 44 43 43 43 42 40 39 37 35 33 31 29 27 25 24 23 23 21 20 20 19 18 18 19 18 18 19 20 19 18 18 18 18 17 17 17 16 16 15 15 16
45 44 42 41 41 40 39 37 35 34 32 30 28 26 24 23 22 22 20 19 18 18 17 17 17 17 18 18 17 17 17 17 17 17 16 16 15 15 15 14 13 13 14
43 41 40 39 39 38 36 34 32 30 29 27 24 23 21 21 20 20 19 18 17 16 16 16 16 17 16 15 15 15 15 14 14 14 15 15 14 14 14 14 13 13 14
40 39 38 37 36 35 33 31 30 28 27 25 23 22 20 18 18 18 17 16 15 14 14 14 14 15 15 14 14 14 14 13 13 13 14 13 13 13 13 13 12 13 13
36 35 35 34 34 33 31 28 26 26 25 23 21 20 18 17 16 16 15 14 14 14 13 12 12 13 13 13 13 13 13 12 13 13 13 13 13 12 11 11 11 12 12
33 33 32 31 30 28 26 25 23 22 21 20 18 17 16 16 15 15 14 13 13 13 12 11 11 12 12 12 12 13 13 13 13 13 13 13 12 11 10 10 10 11 11
31 30 28 26 25 24 22 21 20 19 18 17 16 15 14 13 13 13 13 13 12 12 11 11 10 12 12 13 13 13 13 13 12 12 12 12 11 10 10 9 9 9 9
27 25 24 22 21 20 19 18 17 16 15 14 14 13 13 11 11 12 12 12 12 12 11 11 11 12 12 13 13 13 13 12 12 12 11 11 10 10 9 9 9 8 8
24 23 22 21 20 18 17 16 15 14 13 13 13 13 12 11 12 12 13 12 12 12 12 12 12 13 13 13 13 13 13 12 12 11 11 10 10 10 9 9 7 7 7
21 21 20 20 18 16 15 14 13 13 13 13 13 13 12 12 13 13 13 13 12 12 13 13 13 14 14 13 13 13 12 12 12 11 10 10 9 9 9 8 7 6 7
19 19 18 18 17 15 14 13 12 12 12 13 13 13 13 12 12 12 13 13 14 13 13 13 14 14 14 14 13 13 13 13 12 11 10 9 9 9 8 7 7 7 7
17 16 16 16 14 13 13 12 12 12 11 12 13 13 13 12 11 11 11 12 13 13 13 14 14 14 15 15 14 14 14 13 12 11 10 9 9 8 8 8 7 7 8
15 14 14 14 12 12 12 12 11 11 11 11 12 12 12 12 12 12 12 12 13 13 13 14 15 16 16 16 15 15 15 13 13 12 11 10 9 9 9 8 8 9 9
14 13 13 12 12 11 11 11 11 11 11 11 11 11 12 12 13 12 12 12 13 14 15 16 17 17 17 17 16 15 14 14 13 12 11 10 10 10 10 10 10 10 11
Wind_Direction
287 288 288 289 288 288 287 287 287 287 288 289 289 288 289 288 288 287 286 285 285 284 283 283 281 280 280 280 278 276 274 274 273 268 266 265 263 263 263 262 261 260 260
287 288 289 290 290 289 289 289 289 289 289 289 289 289 289 288 288 288 286 285 284 282 282 282 280 279 279 278 277 275 272 273 272 268 265 263 262 262 262 262 259 259 260
288 289 291 291 292 291 290 290 291 291 290 290 290 289 289 288 289 288 286 284 283 282 281 280 278 277 278 277 275 275 271 269 269 267 263 261 259 259 259 258 258 255 256
289 290 291 292 292 291 291 291 292 292 291 291 290 289 288 289 290 289 287 284 282 281 281 279 278 277 277 276 274 273 269 267 266 264 260 256 256 257 256 257 258 254 254
289 291 291 292 292 292 291 292 292 292 292 291 289 288 289 290 290 289 287 284 282 280 279 279 277 276 276 274 271 269 266 264 261 257 253 252 253 254 255 257 257 253 252
290 291 292 292 292 292 292 293 293 293 292 290 289 289 290 289 289 288 287 285 282 279 278 277 276 274 272 269 268 266 263 260 255 252 250 251 252 252 251 252 252 251 251
290 291 291 291 291 291 292 293 293 293 292 290 290 290 290 290 289 288 287 285 281 278 276 275 275 271 268 266 264 262 258 256 253 251 249 251 250 249 248 249 248 249 246
290 291 291 291 291 292 292 292 293 293 292 291 291 290 290 289 288 287 285 283 281 278 273 273 271 266 263 261 258 256 254 254 252 250 248 247 247 244 245 244 243 246 246
289 290 290 291 291 292 292 292 293 292 292 291 291 291 290 289 288 285 283 282 279 275 272 270 266 262 260 256 254 254 252 252 250 247 243 241 241 241 242 241 241 243 242
288 290 291 291 291 291 292 292 292 292 291 291 290 290 289 288 286 284 282 279 277 275 270 266 262 260 258 254 254 255 252 250 247 242 241 240 238 239 240 242 242 241 240
288 290 291 291 291 292 292 292 292 292 292 291 290 288 286 286 284 281 278 276 273 271 268 264 261 258 255 253 253 252 248 244 241 237 238 238 238 238 240 244 243 242 244
288 289 289 289 290 291 291 291 292 292 291 290 288 285 284 283 281 278 276 273 272 267 264 262 258 256 257 255 250 243 241 238 235 236 235 237 237 236 237 237 237 240 244
288 288 289 289 290 291 291 291 291 290 290 289 285 281 279 278 277 275 275 272 270 267 263 262 260 258 256 252 247 239 236 234 233 234 235 235 234 231 229 227 232 239 246
287 288 288 288 290 291 291 290 290 288 287 287 282 277 274 272 271 270 269 268 270 268 263 262 259 258 253 250 242 235 234 233 234 234 232 227 226 223 221 223 233 242 244
288 287 286 287 288 289 290 289 288 287 285 284 279 274 271 268 265 265 264 263 265 262 261 259 257 254 249 242 232 228 227 225 226 229 223 216 217 219 221 227 239 243 245
287 286 285 285 287 287 287 286 285 284 283 280 275 271 268 266 262 260 257 257 256 256 257 255 251 245 240 229 221 219 216 217 220 220 214 212 214 218 225 235 242 244 246
287 287 286 286 286 286 284 282 281 281 281 277 272 268 265 264 259 253 250 249 248 247 249 248 244 237 228 219 217 213 209 210 212 210 206 207 213 218 228 236 239 241 243
286 287 287 287 286 285 283 280 279 277 274 271 268 264 261 258 251 247 245 244 241 239 239 239 233 224 217 213 210 207 206 205 205 207 207 209 212 218 226 230 234 238 240
285 285 285 285 285 285 282 280 277 275 270 264 260 256 253 247 243 241 237 235 232 230 230 229 222 215 212 206 202 202 201 200 202 204 205 208 212 218 219 223 227 230 236
283 283 283 283 284 284 283 279 273 270 266 259 252 246 240 237 236 233 232 231 228 225 222 221 214 207 203 197 196 196 197 197 198 200 203 205 208 211 214 219 224 230 231
280 279 280 281 282 282 280 276 270 263 256 251 245 240 238 238 232 230 230 228 225 221 217 214 212 206 197 194 197 196 194 194 195 198 201 202 204 206 209 214 219 226 227
278 278 278 280 280 279 276 270 263 255 250 245 241 237 239 238 232 227 226 223 219 214 212 211 207 201 199 199 197 193 192 193 192 193 195 195 196 197 202 209 214 218 214
278 276 276 277 276 273 268 262 256 252 249 244 241 236 235 233 231 227 225 220 213 209 209 206 200 198 198 195 190 187 185 184 185 186 186 188 189 191 198 201 200 197 189
277 275 275 275 270 263 257 253 250 247 244 236 232 229 228 226 224 221 219 214 207 208 208 201 196 194 191 185 180 178 177 177 178 178 175 174 174 179 184 183 180 174 168
274 273 271 269 261 254 249 245 243 239 235 227 223 222 220 218 215 211 208 203 201 202 198 194 190 186 183 180 176 174 174 175 174 171 167 166 167 171 173 170 165 159 155
269 267 265 259 250 245 242 239 237 233 227 218 214 212 209 205 203 201 200 197 195 192 189 184 180 178 176 173 171 170 171 170 169 168 166 167 167 166 163 159 157 153 149
Height
5623 5619 5615 5611 5607 5603 5600 5596 5592 5589 5585 5581 5576 5572 5567 5563 5559 5555 5552 5548 5545 5542 5539 5537 5536 5534 5533 5531 5530 5529 5529 5528 5531 5536 5536 5536 5537 5539 5542 5545 5548 5550 5554
5610 5606 5602 5597 5593 5589 5585 5580 5576 5573 5568 5564 5559 5555 5550 5546 5542 5538 5535 5531 5528 5526 5524 5523 5521 5520 5519 5518 5517 5517 5517 5517 5518 5522 5524 5525 5527 5529 5532 5534 5537 5540 5543
5596 5592 5588 5583 5578 5574 5570 5566 5561 5557 5552 5547 5543 5538 5534 5530 5526 5521 5518 5516 5513 5512 5510 5509 5508 5507 5507 5506 5505 5505 5505 5506 5507 5510 5513 5515 5517 5520 5523 5526 5529 5532 5535
5583 5578 5574 5569 5564 5560 5555 5551 5546 5541 5536 5532 5527 5523 5518 5514 5510 5507 5504 5502 5500 5498 5497 5496 5495 5494 5494 5494 5494 5494 5495 5496 5498 5500 5503 5506 5509 5512 5515 5518 5521 5524 5527
5569 5565 5560 5555 5550 5545 5541 5536 5531 5526 5521 5517 5512 5508 5504 5500 5497 5493 5491 5489 5487 5486 5485 5484 5483 5483 5483 5483 5484 5485 5486 5488 5489 5492 5495 5498 5501 5504 5508 5511 5514 5518 5521
5555 5551 5546 5541 5536 5531 5527 5522 5518 5513 5508 5503 5499 5495 5491 5487 5484 5480 5478 5476 5475 5474 5474 5474 5473 5473 5473 5474 5475 5477 5478 5480 5483 5485 5488 5491 5495 5498 5501 5504 5508 5511 5514
5541 5536 5532 5527 5522 5518 5513 5509 5504 5500 5495 5491 5486 5482 5479 5476 5472 5469 5466 5465 5464 5464 5464 5464 5464 5465 5465 5467 5469 5470 5472 5473 5476 5479 5482 5485 5489 5492 5495 5498 5501 5505 5508
5527 5523 5518 5514 5509 5505 5501 5496 5492 5487 5483 5479 5475 5471 5468 5465 5462 5459 5457 5456 5456 5456 5456 5456 5457 5458 5459 5460 5462 5464 5466 5468 5470 5473 5476 5480 5483 5486 5489 5493 5496 5499 5502
5513 5509 5504 5500 5496 5493 5489 5484 5480 5475 5472 5468 5464 5461 5458 5456 5452 5450 5448 5448 5448 5448 5449 5449 5450 5451 5453 5454 5456 5459 5461 5463 5465 5467 5470 5474 5477 5480 5483 5487 5491 5494 5497
5500 5496 5492 5488 5484 5480 5477 5473 5469 5464 5461 5457 5454 5451 5449 5447 5444 5442 5441 5441 5441 5442 5442 5443 5444 5445 5447 5448 5450 5453 5455 5458 5459 5462 5466 5469 5472 5475 5478 5482 5486 5490 5493
5487 5483 5480 5476 5472 5469 5465 5461 5457 5454 5450 5447 5445 5442 5440 5438 5437 5435 5434 5434 5434 5435 5436 5438 5439 5440 5441 5443 5445 5447 5450 5452 5454 5458 5461 5464 5468 5471 5475 5478 5482 5485 5489
5474 5471 5468 5464 5461 5457 5454 5451 5447 5443 5440 5438 5436 5434 5432 5431 5430 5429 5428 5428 5429 5430 5431 5432 5433 5434 5436 5437 5440 5442 5444 5447 5450 5453 5456 5460 5464 5468 5471 5474 5478 5481 5484
5462 5459 5456 5453 5450 5446 5443 5440 5437 5434 5431 5429 5427 5426 5425 5424 5424 5423 5423 5423 5423 5424 5426 5427 5428 5430 5431 5433 5436 5438 5440 5443 5446 5450 5453 5457 5460 5464 5467 5471 5474 5477 5480
5450 5448 5445 5442 5440 5436 5433 5430 5428 5425 5423 5421 5419 5419 5419 5419 5418 5418 5418 5419 5420 5420 5421 5423 5424 5425 5427 5429 5432 5434 5437 5440 5443 5446 5450 5453 5456 5460 5464 5467 5470 5473 5476
5438 5436 5434 5431 5429 5427 5424 5421 5419 5417 5414 5413 5412 5412 5412 5413 5413 5413 5413 5415 5416 5416 5418 5419 5420 5422 5423 5425 5428 5431 5434 5437 5440 5443 5447 5450 5454 5458 5461 5464 5467 5470 5472
5428 5426 5423 5421 5419 5417 5415 5413 5410 5409 5407 5406 5406 5406 5406 5407 5408 5408 5409 5410 5412 5413 5415 5416 5417 5418 5420 5423 5426 5429 5432 5435 5438 5442 5445 5448 5452 5455 5459 5462 5464 5467 5469
5417 5415 5413 5411 5409 5407 5406 5404 5403 5402 5400 5400 5400 5400 5401 5402 5403 5404 5405 5407 5408 5410 5412 5413 5415 5417 5419 5421 5424 5427 5431 5434 5437 5440 5444 5447 5450 5454 5456 5459 5461 5463 5465
5408 5406 5404 5402 5400 5399 5397 5396 5395 5395 5395 5395 5395 5395 5396 5397 5398 5400 5402 5404 5406 5407 5409 5411 5413 5415 5418 5420 5423 5426 5429 5433 5436 5439 5442 5445 5448 5451 5454 5456 5458 5460 5462
5399 5397 5396 5394 5393 5391 5390 5389 5389 5388 5389 5390 5390 5391 5392 5393 5395 5397 5399 5401 5403 5406 5408 5409 5411 5414 5416 5419 5422 5425 5428 5432 5434 5437 5440 5444 5446 5449 5451 5454 5456 5458 5459
5390 5389 5388 5387 5386 5385 5384 5383 5383 5383 5384 5385 5386 5387 5388 5390 5392 5394 5396 5399 5401 5403 5406 5408 5410 5412 5415 5418 5421 5424 5427 5430 5433 5436 5439 5442 5445 5447 5450 5452 5454 5456 5457
5383 5382 5381 5381 5380 5379 5378 5378 5378 5379 5380 5381 5382 5384 5385 5388 5390 5392 5394 5396 5398 5401 5403 5406 5409 5411 5414 5417 5420 5423 5426 5429 5432 5435 5438 5441 5444 5446 5448 5450 5452 5454 5455
5376 5376 5375 5375 5374 5374 5373 5373 5374 5375 5376 5377 5379 5381 5383 5385 5387 5389 5392 5394 5396 5399 5402 5405 5407 5410 5413 5417 5420 5423 5426 5429 5432 5435 5437 5440 5442 5445 5447 5449 5451 5452 5454
5370 5369 5369 5369 5368 5369 5369 5369 5370 5371 5373 5374 5376 5378 5380 5382 5384 5387 5389 5392 5395 5397 5400 5403 5406 5410 5413 5416 5419 5422 5425 5428 5431 5434 5437 5439 5442 5444 5446 5448 5450 5452 5453
5364 5363 5363 5363 5363 5364 5365 5365 5366 5368 5369 5371 5373 5375 5378 5380 5382 5385 5387 5390 5393 5396 5399 5402 5405 5409 5412 5416 5419 5422 5425 5428 5431 5434 5437 5439 5441 5443 5445 5448 5450 5451 5453
5358 5358 5358 5359 5359 5360 5361 5362 5363 5364 5366 5368 5370 5373 5375 5378 5380 5383 5385 5388 5391 5394 5398 5401 5405 5408 5412 5416 5419 5422 5426 5429 5431 5434 5436 5439 5441 5443 5446 5448 5450 5452 5454
5353 5353 5354 5354 5355 5356 5358 5359 5360 5362 5364 5366 5368 5370 5373 5376 5378 5381 5384 5387 5390 5393 5397 5401 5405 5409 5412 5416 5420 5423 5426 5429 5432 5435 5437 5439 5442 5444 5446 5448 5451 5453 5455